Hourly Data Report for October 21, 2013

All times are specified in Local Standard Time (LST). Add 1 hour to adjust for Daylight Saving Time where and when it is observed.

TORONTO INTL A
ONTARIO

43°40'36.000" N
79°37'50.000" W
173.40 m
6158731
71624
YYZ

Download Data

Hourly Data (October 2013)
Hourly Data Report for October 21, 2013
Temp Definition
°C
Dew Point Temp Definition
°C
Rel Hum Definition
%
Wind Dir Definition
10's deg

Wind Spd Definition
km/h
Visibility Definition
km
Stn Press Definition
kPa
Hmdx Definition


Wind Chill Definition


Weather Definition


TIME
00:00 Legend Double Dagger 8.9 2.7 65 11 6 24.1 99.24     Rain
01:00 Legend Double Dagger 9.4 4.0 69 13 9 24.1 99.21     Cloudy
02:00 Legend Double Dagger 10.2 6.4 77 13 10 24.1 99.16     LegendNANA
03:00 Legend Double Dagger 10.3 7.2 81 15 10 24.1 99.11     LegendNANA
04:00 Legend Double Dagger 11.5 7.6 77 19 10 24.1 99.12     Cloudy
05:00 Legend Double Dagger 11.6 8.3 80 20 18 16.1 99.11     Rain Showers
06:00 Legend Double Dagger 11.3 8.4 82 17 12 16.1 99.09     Rain Showers
07:00 Legend Double Dagger 11.1 8.5 84 18 12 24.1 99.07     Mostly Cloudy
08:00 Legend Double Dagger 11.8 8.5 80 18 12 24.1 99.09     LegendNANA
09:00 Legend Double Dagger 12.8 8.1 73 21 21 24.1 99.08     LegendNANA
10:00 Legend Double Dagger 13.6 8.3 70 21 20 24.1 99.07     Cloudy
11:00 Legend Double Dagger 14.3 9.0 70 21 21 24.1 99.01     LegendNANA
12:00 Legend Double Dagger 15.6 8.7 63 22 29 24.1 98.92     LegendNANA
13:00 Legend Double Dagger 16.0 8.6 61 21 36 24.1 98.86     Cloudy
14:00 Legend Double Dagger 15.5 8.8 64 23 33 24.1 98.82     LegendNANA
15:00 Legend Double Dagger 15.1 8.4 64 22 32 24.1 98.81     LegendNANA
16:00 Legend Double Dagger 14.7 7.8 63 23 27 24.1 98.80     Cloudy
17:00 Legend Double Dagger 11.1 9.2 88 25 24 19.3 98.86     Rain Showers
18:00 Legend Double Dagger 10.9 8.2 83 24 27 19.3 98.86     Rain Showers
19:00 Legend Double Dagger 10.5 8.4 87 23 24 19.3 98.86     Rain
20:00 Legend Double Dagger 10.3 8.4 88 23 24 16.1 98.80     Rain
21:00 Legend Double Dagger 10.1 8.7 91 21 19 16.1 98.76     Rain
22:00 Legend Double Dagger 9.7 8.8 94 27 10 19.3 98.72     Rain
23:00 Legend Double Dagger 8.9 5.5 79 28 26 19.3 98.72     LegendNANA

Notes on Data Quality.

Legend

  • E = Estimated
  • M = Missing
  • NA = Not Available
  • ‡ = Partner data that is not subject to review by the National Climate Archives
Date modified: